TimeEST,TemperatureF,Dew PointF,Humidity,Sea Level PressureIn,VisibilityMPH,Wind Direction,Wind SpeedMPH,Gust SpeedMPH,PrecipitationIn,Events,Conditions,WindDirDegrees,DateUTC
12:00 AM,60.8,57.2,88,29.99,0.5,Calm,Calm,-,N/A,Fog,Fog,0,2012-12-08 05:00:00
12:20 AM,60.8,57.2,88,29.98,0.2,Calm,Calm,-,N/A,Fog,Fog,0,2012-12-08 05:20:00
12:22 AM,60.8,57.2,88,29.98,0.5,Calm,Calm,-,N/A,Fog,Fog,0,2012-12-08 05:22:00
12:39 AM,60.8,57.2,88,29.97,0.5,Calm,Calm,-,N/A,Fog,Fog,0,2012-12-08 05:39:00
12:56 AM,60.1,57.9,93,29.98,0.5,Calm,Calm,-,N/A,Fog,Fog,0,2012-12-08 05:56:00
1:07 AM,60.8,57.2,88,29.97,0.8,Calm,Calm,-,0.00,Rain,Light Rain,0,2012-12-08 06:07:00
1:18 AM,60.8,57.2,88,29.97,1.0,Calm,Calm,-,0.00,Rain,Light Rain,0,2012-12-08 06:18:00
1:25 AM,60.8,57.2,88,29.97,1.2,Calm,Calm,-,0.00,,Overcast,0,2012-12-08 06:25:00
1:30 AM,60.8,57.2,88,29.97,0.8,Calm,Calm,-,0.01,,Overcast,0,2012-12-08 06:30:00
1:41 AM,60.8,57.2,88,29.97,0.8,Calm,Calm,-,0.01,,Overcast,0,2012-12-08 06:41:00
1:48 AM,60.8,57.2,88,29.97,0.5,Calm,Calm,-,0.01,Fog,Fog,0,2012-12-08 06:48:00
1:56 AM,61.0,57.9,90,29.98,0.5,Calm,Calm,-,0.01,Fog,Fog,0,2012-12-08 06:56:00
2:08 AM,60.8,57.2,88,29.97,0.5,Calm,Calm,-,N/A,Fog,Fog,0,2012-12-08 07:08:00
2:20 AM,60.8,57.2,88,29.96,0.2,NW,3.5,-,N/A,Fog,Fog,310,2012-12-08 07:20:00
2:31 AM,60.8,57.2,88,29.96,0.5,Calm,Calm,-,N/A,Fog,Fog,0,2012-12-08 07:31:00
2:56 AM,61.0,57.9,90,29.98,0.5,Calm,Calm,-,N/A,Fog,Fog,0,2012-12-08 07:56:00
3:12 AM,60.8,57.2,88,29.97,0.8,West,4.6,-,N/A,,Overcast,280,2012-12-08 08:12:00
3:23 AM,62.6,59.0,88,29.97,1.0,WNW,5.8,-,N/A,,Overcast,290,2012-12-08 08:23:00
3:25 AM,62.6,59.0,88,29.97,1.2,West,5.8,-,N/A,,Overcast,280,2012-12-08 08:25:00
3:33 AM,62.6,59.0,88,29.96,3.0,WNW,6.9,-,N/A,,Overcast,290,2012-12-08 08:33:00
3:56 AM,62.1,59.0,90,29.98,6.0,West,4.6,-,N/A,,Overcast,270,2012-12-08 08:56:00
4:20 AM,62.6,59.0,88,29.97,5.0,West,4.6,-,N/A,,Overcast,280,2012-12-08 09:20:00
4:48 AM,62.6,59.0,88,29.98,5.0,West,6.9,-,N/A,,Overcast,280,2012-12-08 09:48:00
4:56 AM,62.1,59.0,90,29.99,8.0,WNW,5.8,-,N/A,,Overcast,290,2012-12-08 09:56:00
5:05 AM,60.8,59.0,94,29.98,10.0,West,4.6,-,N/A,,Overcast,280,2012-12-08 10:05:00
5:56 AM,61.0,57.9,90,30.00,10.0,West,3.5,-,N/A,,Overcast,270,2012-12-08 10:56:00
6:56 AM,60.1,57.0,90,30.02,10.0,West,4.6,-,N/A,,Overcast,280,2012-12-08 11:56:00
7:21 AM,60.8,55.4,82,30.02,10.0,WNW,9.2,-,N/A,,Overcast,300,2012-12-08 12:21:00
7:56 AM,59.0,55.0,87,30.03,8.0,WNW,9.2,-,N/A,,Overcast,300,2012-12-08 12:56:00
8:56 AM,59.0,55.0,87,30.06,8.0,WNW,6.9,-,N/A,,Overcast,290,2012-12-08 13:56:00
9:56 AM,59.0,55.0,87,30.07,9.0,West,9.2,-,N/A,,Overcast,280,2012-12-08 14:56:00
10:56 AM,60.1,55.0,83,30.06,10.0,West,9.2,-,N/A,,Overcast,280,2012-12-08 15:56:00
11:56 AM,63.0,55.0,75,30.04,10.0,NW,6.9,-,N/A,,Overcast,310,2012-12-08 16:56:00
12:56 PM,63.0,54.0,72,30.03,10.0,West,5.8,-,N/A,,Scattered Clouds,280,2012-12-08 17:56:00
1:56 PM,66.0,54.0,65,30.02,10.0,West,5.8,-,N/A,,Clear,280,2012-12-08 18:56:00
2:56 PM,66.9,54.0,63,30.02,10.0,WSW,6.9,-,N/A,,Clear,250,2012-12-08 19:56:00
3:56 PM,64.9,54.0,68,30.03,10.0,West,4.6,-,N/A,,Clear,260,2012-12-08 20:56:00
4:56 PM,63.0,54.0,72,30.04,10.0,SW,3.5,-,N/A,,Clear,220,2012-12-08 21:56:00
5:56 PM,61.0,54.0,78,30.05,10.0,SSW,3.5,-,N/A,,Clear,200,2012-12-08 22:56:00
6:56 PM,55.9,53.1,90,30.07,7.0,SSW,3.5,-,N/A,,Clear,200,2012-12-08 23:56:00
7:23 PM,53.6,51.8,94,30.07,2.0,South,3.5,-,N/A,,Partly Cloudy,190,2012-12-09 00:23:00
7:35 PM,55.4,51.8,88,30.07,1.8,South,3.5,-,N/A,,Mostly Cloudy,170,2012-12-09 00:35:00
7:39 PM,55.4,53.6,94,30.07,0.8,South,5.8,-,N/A,,Mist,180,2012-12-09 00:39:00
7:47 PM,55.4,53.6,94,30.07,0.5,South,3.5,-,N/A,Fog,Fog,180,2012-12-09 00:47:00
7:56 PM,55.0,53.1,93,30.08,0.5,Calm,Calm,-,N/A,Fog,Fog,0,2012-12-09 00:56:00
8:26 PM,55.4,51.8,88,30.07,1.0,South,4.6,-,N/A,,Mist,170,2012-12-09 01:26:00
8:42 PM,55.4,51.8,88,30.08,1.0,Calm,Calm,-,N/A,,Mist,0,2012-12-09 01:42:00
8:47 PM,55.4,53.6,94,30.08,0.8,Calm,Calm,-,N/A,,Overcast,0,2012-12-09 01:47:00
8:56 PM,55.0,52.0,89,30.09,0.5,Calm,Calm,-,N/A,Fog,Fog,0,2012-12-09 01:56:00
9:08 PM,55.4,51.8,88,30.08,0.2,Calm,Calm,-,N/A,Fog,Fog,0,2012-12-09 02:08:00
9:56 PM,55.0,52.0,89,30.09,0.2,SSE,3.5,-,N/A,Fog,Fog,160,2012-12-09 02:56:00
10:56 PM,54.0,52.0,93,30.09,0.2,SSE,3.5,-,N/A,Fog,Fog,160,2012-12-09 03:56:00
11:56 PM,53.1,50.0,89,30.10,0.2,Calm,Calm,-,N/A,Fog,Fog,0,2012-12-09 04:56:00